Hourly Data Report for October 22, 2015

All times are specified in Local Standard Time (LST). Add 1 hour to adjust for Daylight Saving Time where and when it is observed.

MONCTON INTL A
NEW BRUNSWICK

46°06'44.000" N
64°40'43.000" W
70.70 m
8103201
71705
YQM

Download Data

Hourly Data (October 2015)
Hourly Data Report for October 22, 2015
Temp Definition
°C
Dew Point Temp Definition
°C
Rel Hum Definition
%
Wind Dir Definition
10's deg

Wind Spd Definition
km/h
Visibility Definition
km
Stn Press Definition
kPa
Hmdx Definition


Wind Chill Definition


Weather Definition


TIME
00:00 Legend Double Dagger -0.7 -3.4 82 21 13 24.1 102.02   -5 LegendNANA
01:00 Legend Double Dagger -1.8 -5.5 76 23 10 24.1 102.01   -5 LegendNANA
02:00 Legend Double Dagger -2.2 -4.5 84 23 11 24.1 102.03   -6 Clear
03:00 Legend Double Dagger -2.6 -4.6 86 22 10 24.1 101.98   -6 LegendNANA
04:00 Legend Double Dagger -1.3 -4.5 79 21 4 24.1 101.88   -3 LegendNANA
05:00 Legend Double Dagger -2.5 -4.4 87 24 5 24.1 101.97   -4 Mainly Clear
06:00 Legend Double Dagger -2.1 -3.7 89 18 3 24.1 101.97   -3 LegendNANA
07:00 Legend Double Dagger -0.1 -3.3 79 14 8 24.1 101.93   -3 LegendNANA
08:00 Legend Double Dagger 1.5 -2.3 76 16 10 24.1 101.93     Rain Showers
09:00 Legend Double Dagger 3.1 1.0 86 14 12 24.1 101.87     Rain Showers
10:00 Legend Double Dagger 4.0 1.6 84 14 15 24.1 101.74     LegendNANA
11:00 Legend Double Dagger 6.4 1.5 71 14 22 24.1 101.56     Cloudy
12:00 Legend Double Dagger 7.2 2.1 70 16 20 24.1 101.49     Rain Showers
13:00 Legend Double Dagger 8.4 3.1 69 15 23 24.1 101.28     Rain Showers
14:00 Legend Double Dagger 7.7 5.0 83 17 17 24.1 101.12     Rain Showers
15:00 Legend Double Dagger 8.2 5.3 82 16 22 24.1 100.97     LegendNANA
16:00 Legend Double Dagger 9.0 6.5 84 16 23 24.1 100.82     LegendNANA
17:00 Legend Double Dagger 10.3 7.6 83 18 20 19.3 100.73     Rain Showers
18:00 Legend Double Dagger 10.8 8.7 87 17 19 24.1 100.61     LegendNANA
19:00 Legend Double Dagger 11.9 9.7 86 17 24 24.1 100.50     LegendNANA
20:00 Legend Double Dagger 12.3 10.4 88 17 26 19.3 100.40     Rain Showers
21:00 Legend Double Dagger 12.1 11.0 93 17 23 12.9 100.35     Rain Showers
22:00 Legend Double Dagger 11.8 10.4 91 18 17 24.1 100.15     LegendNANA
23:00 Legend Double Dagger 11.7 10.8 94 23 11 24.1 100.14     Cloudy

Notes on Data Quality.

Legend

  • E = Estimated
  • M = Missing
  • NA = Not Available
  • ‡ = Partner data that is not subject to review by the National Climate Archives
Date modified: